This demonstration page uses our WeatherBlox Daily Observations layout. Learn more.

41.86663, -103.66717

Hourly Observations for May 22, 2019

Temp ( °F °C ) Dew Point ( °F °C ) Humidity (%) Winds ( mph kmh ) Pressure ( in mb ) Visibility ( mi km ) Precip ( " mm )
12:53 am 00:53 Cloudy with Light Rain 35 1.7 34 1.1 96 96 WNW 15 24 29.56 1001 10 16.09344 0.001 0.001
1:08 am 01:08 Cloudy with Light Snow 36 2 34 1 93 93 WNW 14 22 29.62 1003 8 12.874752 0 0
1:28 am 01:28 Cloudy with Light Snow 36 2 34 1 93 93 WNW 14 22 29.62 1003 9 14.484096 0 0
1:49 am 01:49 Cloudy with Light Snow 34 1 34 1 100 100 WNW 15 24 29.65 1004 7 11.265408 0.01 0.254
1:53 am 01:53 Cloudy with Light Snow 34 1.1 34 1.1 100 100 WNW 13 20 29.56 1001 7 11.265408 0.01 0.254
2:35 am 02:35 Cloudy with Light Snow 35 1.7 34 1.1 96 96 WNW 14 22 29.65 1004 9 14.484096 0.01 0.254
2:53 am 02:53 Cloudy with Light Rain 35 1.7 34 1.1 96 96 WNW 13 20 29.56 1001 10 16.09344 0.01 0.254
3:13 am 03:13 Cloudy with Light Snow 35 1.7 34 1.1 96 96 WNW 13 20 29.65 1004 9 14.484096 0.001 0.001
3:27 am 03:27 Cloudy with Light Snow 35 1.7 34 1.1 96 96 WNW 13 20 29.65 1004 9 14.484096 0.001 0.001
3:43 am 03:43 Cloudy with Light Snow 35 1.7 34 1.1 96 96 WNW 13 20 29.65 1004 8 12.874752 0.01 0.254
3:53 am 03:53 Cloudy with Light Snow 35 1.7 34 1.1 96 96 WNW 14 22 29.59 1002 9 14.484096 0.01 0.254
4:14 am 04:14 Cloudy with Light Snow 35 1.7 34 1.1 96 96 WNW 12 19 29.65 1004 9 14.484096 0.001 0.001
4:50 am 04:50 Cloudy with Light Snow 34 1 34 1 100 100 WNW 14 22 29.65 1004 7 11.265408 0.01 0.254
4:53 am 04:53 Cloudy with Light Snow 34 1.1 34 1.1 100 100 WNW 13 20 29.59 1002 7 11.265408 0.01 0.254
5:13 am 05:13 Cloudy with Light Wintry Mix 34 1.1 34 1.1 100 100 WNW 13 20 29.68 1005 9 14.484096 0.001 0.001
5:33 am 05:33 Cloudy with Light Snow 34 1.1 34 1.1 100 100 WNW 10 17 29.68 1005 9 14.484096 0.001 0.001
5:53 am 05:53 Cloudy with Light Snow 34 1.1 34 1.1 100 100 WNW 12 19 29.62 1003 5 8.04672 0.01 0.254
6:04 am 06:04 Cloudy 36 2 34 1 93 93 WNW 13 20 29.68 1005 9 14.484096 0 0
6:24 am 06:24 Cloudy 35 1.7 34 1.1 96 96 WNW 14 22 29.68 1005 10 16.09344 0.001 0.001
6:53 am 06:53 Cloudy 36 2.2 35 1.7 97 97 WNW 13 20 29.62 1003 10 16.09344 0.001 0.001
7:06 am 07:06 Cloudy 36 2 36 2 100 100 WNW 13 20 29.71 1006 10 16.09344 0 0
7:13 am 07:13 Cloudy 36 2.2 35 1.7 97 97 WNW 15 24 29.71 1006 10 16.09344 0 0
7:53 am 07:53 Cloudy 38 3.3 36 2.2 93 93 WNW 16 26 29.65 1004 10 16.09344 0 0
8:29 am 08:29 Cloudy 38 3.3 36 2.2 93 93 WNW 20 31 29.71 1006 10 16.09344 0 0
8:53 am 08:53 Cloudy with Light Rain 39 3.9 37 2.8 93 93 WNW 22 35 29.68 1005 10 16.09344 0.001 0.001
9:53 am 09:53 Cloudy 41 5 37 2.8 86 86 NW 21 33 29.71 1006 10 16.09344 0.001 0.001
10:53 am 10:53 Cloudy 45 7.2 37 2.8 74 74 NW 24 39 29.71 1006 10 16.09344 0 0
11:53 am 11:53 Cloudy 44 6.7 36 2.2 73 73 WNW 22 35 29.74 1007 10 16.09344 0 0
12:53 pm 12:53 Cloudy 47 8.3 36 2.2 66 66 NW 23 37 29.74 1007 10 16.09344 0 0
1:53 pm 13:53 Cloudy 46 7.8 36 2.2 68 68 WNW 17 28 29.8 1009 10 16.09344 0 0
2:08 pm 14:08 Cloudy 46 8 36 2 66 66 WNW 15 24 29.77 1008 10 16.09344 0 0
2:24 pm 14:24 Cloudy 46 8 37 3 71 71 WNW 17 28 29.77 1008 10 16.09344 0 0
2:53 pm 14:53 Cloudy 48 8.9 37 2.8 66 66 NW 18 30 29.8 1009 10 16.09344 0 0
3:53 pm 15:53 Partly Cloudy 51 10.6 37 2.8 59 59 NW 21 33 29.83 1010 10 16.09344 0 0
4:53 pm 16:53 Partly Cloudy 51 10.6 38 3.3 61 61 WNW 21 33 29.85 1011 10 16.09344 0 0
5:53 pm 17:53 Partly Cloudy 51 10.6 37 2.8 59 59 WNW 22 35 29.88 1012 10 16.09344 0 0
6:53 pm 18:53 Partly Cloudy 50 10 37 2.8 61 61 WNW 16 26 29.91 1013 10 16.09344 0 0
7:53 pm 19:53 Sunny 46 7.8 37 2.8 71 71 NW 12 19 29.94 1014 10 16.09344 0 0
8:53 pm 20:53 Clear 40 4.4 36 2.2 86 86 WNW 8 13 30 1016 10 16.09344 0 0
9:53 pm 21:53 Clear 37 2.8 34 1.1 89 89 WNW 7 11 30.06 1018 10 16.09344 0 0
10:53 pm 22:53 Clear 36 2.2 35 1.7 97 97 WNW 8 13 30.03 1017 10 16.09344 0 0
11:53 pm 23:53 Clear 35 1.7 34 1.1 96 96 WNW 6 9 30.06 1018 10 16.09344 0 0

Powered by AerisWeather